• In Belarus
  • List of Countries
  • For 7 days
  • Water Temperature
  • Satellite Maps
  • Weather Map
  • Weather Widgets
  • user-avatar
    Login

    Hourly Weather Brčko

    Today, 23 November, Thursday

    Time Temperature Precipitation Wind Pressure Humidity
    00:00 +8°C° 0 mm 2 mps 755 mmHg 80%
    01:00 +8°C° 0 mm 2 mps 755 mmHg 80%
    02:00 +7°C° 0 mm 2 mps 755 mmHg 80%
    03:00 +7°C° 0 mm 2 mps 755 mmHg 80%
    04:00 +7°C° 0 mm 2 mps 755 mmHg 80%
    05:00 +7°C° 0 mm 2 mps 755 mmHg 79%
    06:00 +7°C° 0 mm 2 mps 755 mmHg 79%
    07:00 +6°C° 0 mm 2 mps 756 mmHg 78%
    08:00 +8°C° 0 mm 2 mps 756 mmHg 71%
    09:00 +10°C° 0 mm 2 mps 756 mmHg 64%
    10:00 +13°C° 0 mm 2 mps 756 mmHg 56%
    11:00 +14°C° 0 mm 1 mps 756 mmHg 53%
    12:00 +15°C° 0 mm 1 mps 755 mmHg 49%
    13:00 +16°C° 0 mm 1 mps 755 mmHg 46%
    14:00 +15°C° 0 mm 1 mps 755 mmHg 51%
    15:00 +14°C° 0 mm 1 mps 755 mmHg 56%
    16:00 +12°C° 0 mm 0 mps 755 mmHg 61%
    17:00 +11°C° 0 mm 0 mps 756 mmHg 63%
    18:00 +11°C° 0 mm 1 mps 756 mmHg 66%
    19:00 +11°C° 0 mm 1 mps 756 mmHg 68%
    20:00 +11°C° 0 mm 1 mps 756 mmHg 69%
    21:00 +10°C° 0 mm 1 mps 757 mmHg 71%
    22:00 +10°C° 0 mm 1 mps 757 mmHg 72%
    23:00 +10°C° 0 mm 1 mps 757 mmHg 74%

    Tomorrow, 24 November, Friday

    Time Temperature Precipitation Wind Pressure Humidity
    00:00 +9°C° 0 mm 1 mps 757 mmHg 75%
    01:00 +8°C° 0 mm 2 mps 757 mmHg 77%
    02:00 +8°C° 0 mm 2 mps 757 mmHg 77%
    03:00 +8°C° 0 mm 2 mps 757 mmHg 78%
    04:00 +7°C° 0 mm 2 mps 757 mmHg 79%
    05:00 +7°C° 0 mm 2 mps 757 mmHg 79%
    06:00 +7°C° 0 mm 2 mps 757 mmHg 79%
    07:00 +7°C° 0 mm 2 mps 757 mmHg 79%
    08:00 +10°C° 0 mm 1 mps 757 mmHg 72%
    09:00 +11°C° 0 mm 1 mps 757 mmHg 66%
    10:00 +13°C° 0 mm 1 mps 757 mmHg 59%
    11:00 +14°C° 0 mm 1 mps 757 mmHg 56%
    12:00 +15°C° 0 mm 1 mps 757 mmHg 52%
    13:00 +16°C° 0 mm 1 mps 756 mmHg 49%
    14:00 +15°C° 0 mm 1 mps 756 mmHg 54%
    15:00 +14°C° 0 mm 1 mps 756 mmHg 59%
    16:00 +12°C° 0 mm 0 mps 756 mmHg 64%
    17:00 +11°C° 0 mm 0 mps 756 mmHg 66%
    18:00 +12°C° 0 mm 1 mps 757 mmHg 68%
    19:00 +11°C° 0 mm 1 mps 757 mmHg 70%
    20:00 +11°C° 0 mm 1 mps 757 mmHg 71%
    21:00 +10°C° 0 mm 1 mps 757 mmHg 73%
    22:00 +10°C° 0 mm 1 mps 757 mmHg 74%
    23:00 +10°C° 0 mm 1 mps 757 mmHg 74%

    Day after tomorrow, 25 November, Saturday

    Time Temperature Precipitation Wind Pressure Humidity
    00:00 +9°C° 0 mm 1 mps 757 mmHg 75%
    01:00 +9°C° 0 mm 1 mps 757 mmHg 76%
    02:00 +9°C° 0 mm 1 mps 757 mmHg 77%
    03:00 +9°C° 0 mm 1 mps 756 mmHg 78%
    04:00 +8°C° 0 mm 1 mps 756 mmHg 79%
    05:00 +8°C° 0 mm 1 mps 756 mmHg 80%
    06:00 +8°C° 0 mm 1 mps 756 mmHg 80%
    07:00 +8°C° 0 mm 1 mps 756 mmHg 81%
    08:00 +9°C° 0 mm 1 mps 756 mmHg 75%
    09:00 +11°C° 0 mm 1 mps 756 mmHg 68%
    10:00 +13°C° 0 mm 1 mps 755 mmHg 61%
    11:00 +14°C° 0 mm 2 mps 755 mmHg 57%
    12:00 +15°C° 0 mm 2 mps 754 mmHg 54%
    13:00 +16°C° 0 mm 2 mps 753 mmHg 50%
    14:00 +15°C° 0 mm 2 mps 753 mmHg 54%
    15:00 +14°C° 0 mm 2 mps 753 mmHg 58%
    16:00 +13°C° 0 mm 2 mps 753 mmHg 61%
    17:00 +13°C° 0 mm 2 mps 753 mmHg 63%
    18:00 +13°C° 0 mm 2 mps 753 mmHg 65%
    19:00 +12°C° 0 mm 2 mps 753 mmHg 67%
    20:00 +12°C° 0 mm 2 mps 753 mmHg 68%
    21:00 +12°C° 0 mm 2 mps 753 mmHg 69%
    22:00 +12°C° 0 mm 2 mps 753 mmHg 70%
    23:00 +12°C° 0.1 mm 2 mps 753 mmHg 71%

    26 November, Sunday

    Time Temperature Precipitation Wind Pressure Humidity
    00:00 +12°C° 0.1 mm 2 mps 753 mmHg 73%
    01:00 +12°C° 0.1 mm 2 mps 753 mmHg 74%
    02:00 +12°C° 0.3 mm 2 mps 753 mmHg 76%
    03:00 +12°C° 0.3 mm 2 mps 752 mmHg 78%
    04:00 +12°C° 0.3 mm 2 mps 752 mmHg 80%
    05:00 +10°C° 0.5 mm 2 mps 753 mmHg 81%
    06:00 +10°C° 0.5 mm 3 mps 753 mmHg 81%
    07:00 +10°C° 0.5 mm 3 mps 753 mmHg 82%
    08:00 +8°C° 0.9 mm 4 mps 754 mmHg 80%
    09:00 +7°C° 0.9 mm 4 mps 754 mmHg 78%
    10:00 +7°C° 0.9 mm 5 mps 755 mmHg 76%
    11:00 +6°C° 0.7 mm 4 mps 754 mmHg 76%
    12:00 +6°C° 0.7 mm 4 mps 754 mmHg 77%
    13:00 +5°C° 0.7 mm 4 mps 754 mmHg 77%
    14:00 +5°C° 0.2 mm 3 mps 754 mmHg 78%
    15:00 +5°C° 0.2 mm 3 mps 754 mmHg 78%
    16:00 +5°C° 0.2 mm 3 mps 755 mmHg 78%
    17:00 +5°C° 0.4 mm 3 mps 755 mmHg 79%
    18:00 +5°C° 0.4 mm 3 mps 755 mmHg 80%
    19:00 +5°C° 0.4 mm 4 mps 755 mmHg 81%
    20:00 +4°C° 0.8 mm 4 mps 756 mmHg 81%
    21:00 +4°C° 0.8 mm 4 mps 756 mmHg 81%
    22:00 +3°C° 0.8 mm 5 mps 756 mmHg 80%
    23:00 +2°C° 0.3 mm 5 mps 757 mmHg 80%

    27 November, Monday

    Time Temperature Precipitation Wind Pressure Humidity
    00:00 +2°C° 0.3 mm 5 mps 757 mmHg 80%
    01:00 +2°C° 0.3 mm 5 mps 757 mmHg 80%
    02:00 +2°C° 0.3 mm 5 mps 757 mmHg 80%
    03:00 +1°C° 0.3 mm 4 mps 757 mmHg 80%
    04:00 +1°C° 0.3 mm 4 mps 758 mmHg 80%
    05:00 +1°C° 0.1 mm 4 mps 758 mmHg 79%
    06:00 +1°C° 0.1 mm 4 mps 759 mmHg 79%
    07:00 +1°C° 0.1 mm 4 mps 759 mmHg 78%
    08:00 +1°C° 0.1 mm 4 mps 759 mmHg 76%
    09:00 +1°C° 0.1 mm 4 mps 760 mmHg 74%
    10:00 +1°C° 0.1 mm 4 mps 760 mmHg 72%
    11:00 +3°C° 0 mm 4 mps 760 mmHg 70%
    12:00 +3°C° 0 mm 4 mps 760 mmHg 67%
    13:00 +4°C° 0 mm 4 mps 759 mmHg 65%
    14:00 +3°C° 0 mm 3 mps 759 mmHg 68%
    15:00 +4°C° 0 mm 2 mps 759 mmHg 70%
    16:00 +3°C° 0 mm 2 mps 760 mmHg 73%
    17:00 +3°C° 0 mm 2 mps 760 mmHg 75%
    18:00 +2°C° 0 mm 2 mps 760 mmHg 78%
    19:00 +2°C° 0 mm 2 mps 760 mmHg 80%
    20:00 +1°C° 0 mm 2 mps 760 mmHg 80%
    21:00 +1°C° 0 mm 2 mps 760 mmHg 81%
    22:00 +1°C° 0 mm 2 mps 760 mmHg 82%
    23:00 +1°C° 0 mm 2 mps 760 mmHg 83%

    28 November, Tuesday

    Time Temperature Precipitation Wind Pressure Humidity
    00:00 -1°C° 0 mm 2 mps 760 mmHg 83%
    01:00 -1°C° 0 mm 2 mps 760 mmHg 84%
    02:00 -1°C° 0 mm 2 mps 760 mmHg 84%
    03:00 +1°C° 0 mm 1 mps 759 mmHg 84%
    04:00 0°C° 0 mm 1 mps 759 mmHg 84%
    05:00 0°C° 0 mm 1 mps 759 mmHg 84%
    06:00 0°C° 0 mm 1 mps 759 mmHg 84%
    07:00 0°C° 0 mm 1 mps 759 mmHg 83%
    08:00 +1°C° 0 mm 1 mps 759 mmHg 77%
    09:00 +3°C° 0 mm 1 mps 759 mmHg 72%
    10:00 +4°C° 0 mm 1 mps 758 mmHg 66%
    11:00 +5°C° 0 mm 1 mps 758 mmHg 63%
    12:00 +5°C° 0 mm 2 mps 757 mmHg 60%
    13:00 +6°C° 0 mm 2 mps 756 mmHg 57%
    14:00 +5°C° 0 mm 2 mps 756 mmHg 62%
    15:00 +4°C° 0 mm 2 mps 756 mmHg 67%
    16:00 +3°C° 0 mm 2 mps 755 mmHg 72%
    17:00 +2°C° 0 mm 2 mps 755 mmHg 74%
    18:00 +2°C° 0 mm 2 mps 755 mmHg 75%
    19:00 +1°C° 0 mm 2 mps 755 mmHg 77%
    20:00 +1°C° 0 mm 2 mps 755 mmHg 77%
    21:00 +1°C° 0 mm 2 mps 755 mmHg 77%
    22:00 +1°C° 0 mm 2 mps 755 mmHg 77%
    23:00 -1°C° 0 mm 2 mps 755 mmHg 77%
    Show more